STARLINK-32878, 62892

Orbit data source: Space-Track

STARLINK-32878, 62892 is a payload satellite owned by SpaceX/Seattle (US) in LEO that was launched on Tue, 04 Feb 2025 UTC via an FALCON 9 launch vehicle from the Air Force Eastern Test Range (AFETR). Payload-class satellites include a variety of spacecraft equipped with specific instruments for various scientific and technological missions. These include communications satellites like Starlink; space stations such as the ISS; scientific satellites like the Hubble; Earth observation satellites from companies like Planet Labs, Umbra, and HawkEye 360; GPS; miniature CubeSats for education and research; and military/defense satellites.

Loading next visibility...
Identifier
62892, 2025-024P
Orbit
LEO
Country
Flag of USUS
Related business
Manufacturer
SpaceX/Seattle
Mission
Operational Commercial Communications
Bus & Motor
STARLINK V2M, Unknown motor
Mass
730 kg wet, ~700 kg dry
Launch date (UTC)
2025-02-04 (10 months ago)
Launch vehicle
FALCON 9
Launch site
Air Force Eastern Test Range (AFETR)
Object type
Payload
Rocket body
Debris
Shape & HBR
Box + 2 Pan, 17.7 m
Radar Cross Section
33.884 m², Large (>1 m²)

Expand to show TLE details & history
Last TLE update: 1 day ago

TLE from 1 day ago
0 STARLINK-32878
1 62892U 25024P   25348.35515424  .00029696  00000-0  10821-2 0  9997
2 62892  42.9996  87.4160 0001492 250.1519 109.9172 15.27645937 49217
Epoch: 2025-12-14T08:31Z
TLE epoch observation values (Epoch: 2025-12-14T08:31:25.326Z)
Latitude
-0°
Longitude
-123.70879°
Altitude
482.976 km
Speed
7.626 km/s
True Right ascension
05h 49m 39s
True Declination
0° 00' 00"
Sunlit
Object was in full shadow at epoch
Visualization orbit readout
Latitude
Unknown
Longitude
Unknown
Altitude
Unknown
Speed
Unknown
Apparent Right ascension
Unknown
Apparent Declination
Unknown
Sunlit
N/A
Visualization observer readout
Local Sidereal Time
12:48:47
Azimuth
Unknown
Elevation
Unknown
Doppler factor
Unknown
Orbital elements
Apogee altitude
485.821 km
Perigee altitude
483.773 km
Semi-major axis
6,862.934 km
Eccentricity
0.00015
Inclination
42.9996°
RAAN
87.416°
Arg. of periapsis
250.1519°
True anomaly
109.93327°
Mean anomaly
109.9172°
Eccentric anomaly
109.92524°
Mean motion
3.81749 °/min
Orbital period
94.3 mins
BSTAR
0.0010821
Loading maneuver chart data...
Computing Atmospheric mass density...
Loading historical data...
Loading historical data...
Loading historical data...
Loading historical data...
Loading historical data...
Loading historical data...
Loading historical data...

Documentation

Showing up to 5 results
|